Location: Estes P
(40.3770°N, 105.5210°W)
Time: 06:15:19
(UTC-07:00)

N. Korean satellite - Visible Passes

Search period start: 13 December 2017 00:00
Search period end: 23 December 2017 00:00
Orbit: 461 x 513 km, 97.2° (Epoch: 12 December)

Date Brightness Start Highest point End Pass type
(mag) Time Alt. Az. Time Alt. Az. Time Alt. Az.
13 Dec 10.0 05:47:34 10° ENE 05:49:26 13° E 05:51:16 10° ESE visible
13 Dec 6.5 17:54:44 10° SSE 17:58:24 74° ENE 18:02:09 10° N visible
14 Dec 7.2 17:31:32 10° SE 17:34:56 36° ENE 17:38:23 10° N visible
14 Dec 9.9 19:06:36 10° SW 19:08:35 14° W 19:10:34 10° WNW visible
15 Dec 7.7 06:32:26 10° NNE 06:36:03 50° E 06:39:35 10° S visible
15 Dec 8.0 17:08:50 10° ESE 17:11:32 19° ENE 17:14:15 10° NNE visible
15 Dec 8.9 18:41:42 10° SSW 18:44:51 26° W 18:48:03 10° NW visible
16 Dec 9.2 06:09:19 10° NE 06:12:24 25° E 06:15:26 10° SSE visible
16 Dec 7.4 18:17:35 10° S 18:21:13 53° W 18:24:53 10° NNW visible
17 Dec 10.0 05:46:55 10° ENE 05:48:40 13° E 05:50:24 10° ESE visible
17 Dec 6.5 17:53:57 10° SSE 17:57:39 73° ENE 18:01:24 10° N visible
18 Dec 7.2 17:30:45 10° SE 17:34:10 35° ENE 17:37:37 10° N visible
18 Dec 9.9 19:05:46 10° SW 19:07:47 14° W 19:09:52 10° WNW visible
19 Dec 7.7 06:31:42 10° NNE 06:35:16 49° E 06:38:45 10° S visible
19 Dec 8.0 17:08:04 10° ESE 17:10:46 19° ENE 17:13:28 10° NNE visible
19 Dec 8.9 18:40:53 10° SSW 18:44:04 27° W 18:47:18 10° NW visible
20 Dec 9.2 06:08:34 10° NE 06:11:36 24° E 06:14:34 10° SSE visible
20 Dec 7.4 18:16:47 10° S 18:20:25 54° W 18:24:07 10° NNW visible
21 Dec 10.0 05:46:12 10° ENE 05:47:50 13° E 05:49:27 10° ESE visible
21 Dec 6.5 17:53:08 10° SSE 17:56:51 72° ENE 18:00:36 10° N visible
22 Dec 7.2 17:29:56 10° SE 17:33:22 35° ENE 17:36:48 10° N visible
22 Dec 9.9 19:04:53 10° SW 19:06:59 14° W 19:09:06 10° WNW visible
